This demonstration page uses our WeatherBlox Daily Observations layout. Learn more.

Left ArrowRight Arrow

40.97296, -117.73568

Hourly Observations for January 10, 2022

Temp ( °F °C ) Dew Point ( °F °C ) Humidity (%) Winds ( mph kmh ) Pressure ( in mb ) Visibility ( mi km ) Precip ( " mm )
12:56 am 00:56 Clear 29 -1.7 21 -6.1 72 72 Calm 30.55 1034 10 16 0.00 0.00
1:56 am 01:56 Clear 27 -2.8 21 -6.1 78 78 SE 3 6 30.55 1035 10 16 0.00 0.00
2:56 am 02:56 Clear 25 -3.9 21 -6.1 85 85 ESE 5 7 30.55 1035 10 16 0.00 0.00
3:56 am 03:56 Clear 26 -3.3 20 -6.7 78 78 E 7 11 30.55 1035 10 16 0.00 0.00
4:56 am 04:56 Clear 26 -3.3 21 -6.1 81 81 Calm 30.56 1035 10 16 0.00 0.00
5:56 am 05:56 Clear 26 -3.3 21 -6.1 81 81 E 9 15 30.58 1036 10 16 0.00 0.00
6:56 am 06:56 Clear 28 -2.2 21 -6.1 75 75 ENE 8 13 30.60 1036 10 16 0.00 0.00
7:56 am 07:56 Sunny 28 -2.2 21 -6.1 75 75 E 7 11 30.61 1037 10 16 0.00 0.00
8:56 am 08:56 Sunny 32 0 23 -5 69 69 ENE 6 9 30.61 1037 10 16 0.00 0.00
9:56 am 09:56 Sunny 34 1.1 24 -4.4 67 67 NE 8 13 30.62 1037 10 16 0.00 0.00
10:56 am 10:56 Sunny 39 3.9 26 -3.3 60 60 Calm 30.61 1037 10 16 0.00 0.00
11:56 am 11:56 Sunny 42 5.6 27 -2.8 55 55 Calm 30.58 1036 10 16 0.00 0.00
12:56 pm 12:56 Mostly Sunny 42 5.6 26 -3.3 53 53 NNE 3 6 30.55 1035 10 16 0.00 0.00
1:56 pm 13:56 Cloudy 42 5.6 25 -3.9 51 51 Calm 30.54 1034 10 16 0.00 0.00
2:56 pm 14:56 Cloudy 42 5.6 25 -3.9 51 51 E 5 7 30.52 1034 10 16 0.00 0.00
3:56 pm 15:56 Mostly Sunny 42 5.6 25 -3.9 51 51 NNE 3 6 30.54 1034 10 16 0.00 0.00
4:56 pm 16:56 Cloudy 40 4.4 26 -3.3 58 58 ENE 3 6 30.55 1035 10 16 0.00 0.00
5:56 pm 17:56 Cloudy 34 1.1 26 -3.3 73 73 Calm 30.57 1035 10 16 0.00 0.00
6:56 pm 18:56 Clear 31 -0.6 26 -3.3 82 82 Calm 30.58 1036 10 16 0.00 0.00
7:56 pm 19:56 Clear 30 -1.1 26 -3.3 85 85 Calm 30.60 1036 10 16 0.00 0.00
8:56 pm 20:56 Clear 30 -1.1 26 -3.3 85 85 SE 5 7 30.59 1036 10 16 0.00 0.00
9:56 pm 21:56 Clear 29 -1.7 25 -3.9 85 85 Calm 30.58 1036 10 16 0.00 0.00
10:56 pm 22:56 Clear 30 -1.1 25 -3.9 82 82 E 3 6 30.58 1036 10 16 0.00 0.00
11:56 pm 23:56 Clear 28 -2.2 24 -4.4 85 85 ENE 6 9 30.57 1035 10 16 0.00 0.00

Powered by AerisWeather